www.pogodaiklimat.ru

Погода и климат >> Архив погоды >> Россия >> Коми >> Окунев Нос


ПОГОДА в Окуневом Носу

  • Прогноз погоды в Окуневом Носу
  • Монитор погоды в Окуневом Носу

АРХИВ ПОГОДЫ в Окуневом Носу

Время (UTC), дата Ветер
(напр.,м/с)
 
Видим.   Явления Облачность Т
(С)
Тd
(С)
f
(%)
Тe
(С)
Тes
(С)
Комфортность P
(гПа)
Po
(гПа)
Тmin
(С)
Tmax
(С)
R
(мм)
R24
(мм)
S
(см)
09 15.08 Ю 3 50 км в посл. час ливневой дождь 10/5 600 м
[Cu med, cong Ac As]
+14.9 +12.5 86 +14 +15 1010.2 1007.5
12 15.08 Ю 3 50 км {ливн. осадки} 9/4 600 м
[Cu med, cong Ac As Ci fib]
+17.3 +12.8 75 +17 +19 1010.0 1007.3
15 15.08 Ю 2 50 км 8/3 1000 м
[Cu med, cong Ac trans Cs]
+17.2 +12.9 76 +18 +18 1009.2 1006.6 +17.7 0.0
18 15.08 ЮВ 2 50 км 10/0
[Ac As]
+14.7 +12.7 88 +14 +14 1008.1 1005.5
00 16.08 В 2 50 км {дождь} 10/0
[Ac As]
+12.9 +12.4 97 +12 +12 1003.6 1001.0
03 16.08 ЮВ 3 12 км слаб. дождь 10/10 540 м
[Sc]
+12.2 +11.9 98 +10 +10 1000.3 997.7 +12.2 5
06 16.08 Ю 3 7000 м слаб. дождь 10/10 400 м
[Sc]
+13.6 +13.3 98 +12 +12 998.7 996.1 +12.1
09 16.08 Ю 5-10
{12}
50 км в посл. час ливневой дождь 10/10 570 м
[Cu Sc]
+13.2 +11.5 89 +11 +11 999.3 996.7
12 16.08 ЮЗ 5
{10}
30 км слаб. ливневой дождь 10/10 960 м
[Cb cap]
+13.2 +12.5 96 +11 +11 1000.6 998.0
15 16.08 ЮЗ 4
{11}
8000 м слаб. ливневой дождь 10/10 420 м
[Cb cap]
+13.4 +12.9 97 +12 +12 1002.6 1000.0 +13.9 7
18 16.08 З 7-10
{11}
50 км {ливн. осадки} 10/10 900 м
[Sc diur, vesp]
+13.4 +12.3 93 +11 +11 1006.7 1004.0
00 17.08 З 3 50 км 10/10 600 м
[Sc]
+12.8 +12.0 95 +11 +11 1012.1 1009.4
03 17.08 З 2 50 км 10/10 800 м
[Sc]
+12.9 +12.2 96 +12 +12 1014.0 1011.3 +12.5 2
06 17.08 СВ 3 50 км 10/10 840 м
[Sc]
+13.4 +12.3 93 +12 +12 1015.4 1012.8
09 17.08 С 2 50 км 10/10 870 м
[Sc]
+12.9 +11.6 92 +12 +12 1016.7 1014.1
12 17.08 С 2 30 км слаб. дождь 10/10 720 м
[Sc]
+12.8 +11.5 92 +12 +12 1018.2 1015.5
15 17.08 С 1 50 км {дождь} 10/10 600 м
[Sc]
+12.5 +11.7 95 +12 +12 1019.4 1016.7 +14.1 0.5
18 17.08 С 3 50 км {дождь} 10/10 420 м
[Sc]
+10.3 +9.7 96 +8 +8 1020.6 1018.0
00 18.08 штиль 0 50 км 10/10 300 м
[Sc]
+10.0 +9.0 93 +9 +9 1022.9 1020.4
03 18.08 Ю 1 50 км 10/10 600 м
[Sc]
+10.6 +9.6 94 +10 +10 1024.3 1021.6 +9.7
06 18.08 Ю 1 50 км 9/9 750 м
[Sc]
+12.0 +9.9 87 +12 +13 1024.9 1022.3
09 18.08 В 1 50 км 5/5 1000 м
[Sc]
+15.8 +9.6 67 +17 +21 1025.0 1022.3
12 18.08 Ю 2 50 км 3/3 1500 м
[Sc]
+17.2 +10.5 65 +18 +20 1025.1 1022.4
15 18.08 ЮВ 2 50 км ясно +17.1 +10.2 64 +17 +18 1025.3 1022.7 +18.0
18 18.08 ЮВ 2 50 км 3/0
[Ac trans]
+12.9 +10.2 84 +12 +12 1026.1 1023.4
00 19.08 В 2 50 км 3/0
[Ac trans Ci fib]
+8.9 +8.8 99 +7 +7 1027.1 1024.3
03 19.08 В 2 50 км 3/0
[Cs]
+11.4 +10.2 92 +10 +11 1027.2 1024.5 +8.3
06 19.08 Ю 2 50 км 3/0
[Cs]
+18.2 +13.1 72 +19 +24 1026.7 1024.0
09 19.08 ЮВ 3 50 км 3/3 1500 м
[Cu med, cong]
+21.9 +11.3 51 +24 +28 комфорт 1025.2 1022.6
12 19.08 Ю 3 50 км 6/3 1000 м
[Cu med, cong Ac trans Cs]
+21.5 +11.3 52 +23 +25 комфорт 1024.0 1021.4
15 19.08 ЮВ 3 50 км 4/0
[Ac trans]
+21.0 +11.8 56 +24 +24 комфорт 1023.2 1020.6 +22.3
18 19.08 В 2 50 км 3/0
[Ac trans]
+16.5 +12.0 75 +17 +17 1022.6 1019.9
00 20.08 ЮВ 1 50 км 3/0
[Ac trans Ci fib]
+12.2 +10.6 90 +12 +12 1021.6 1019.0
03 20.08 В 1 50 км 5/0
[Ac trans]
+14.1 +10.9 81 +14 +15 1021.3 1018.7 +11.7
06 20.08 ЮВ 3 50 км 3/0
[Ac trans Ci fib]
+20.4 +11.6 57 +23 +27 комфорт 1020.8 1018.2
09 20.08 Ю 4 50 км 3/1 1500 м
[Cu hum Ac trans]
+22.3 +11.7 51 +25 +28 комфорт 1019.9 1017.3
12 20.08 ЮВ 4 50 км 4/3 1500 м
[Cu hum Ac trans Ci fib]
+23.0 +10.4 45 +25 +27 комфорт 1019.3 1016.7
15 20.08 Ю 5 50 км 9/0
[Ac As]
+19.5 +13.8 70 +21 +21 комфорт 1019.6 1017.0 +23.2
18 20.08 ЮВ 2 50 км 8/0
[Ac As]
+17.2 +14.3 83 +18 +18 1019.6 1017.0
00 21.08 Ю 3 50 км 10/0
[Ac As]
+15.5 +14.9 96 +15 +15 1018.8 1016.2
03 21.08 Ю 3 50 км {дождь} 9/0
[Ac As]
+16.0 +15.0 94 +15 +16 1018.5 1015.8 +15.4 0.0
06 21.08 Ю 3 30 км слаб. дождь 10/0
[Ac As]
+16.3 +15.8 97 +16 +17 1018.0 1015.4
09 21.08 Ю 3 20 км слаб. дождь 10/10 450 м
[Sc]
+16.5 +16.0 97 +16 +16 1017.5 1014.9
12 21.08 Ю 2 50 км {дождь} 10/10 500 м
[Sc]
+17.3 +16.8 97 +18 +18 1017.1 1014.5
15 21.08 З 3 50 км 8/3 1500 м
[Cu med, cong Ac As]
+16.8 +14.2 85 +17 +17 1017.1 1014.5 +17.5 1
18 21.08 штиль 0 50 км 8/0
[Ac As]
+13.8 +13.4 97 +13 +13 1017.5 1014.8
00 22.08 ЮЗ 1 50 км 8/0
[Ac lent Ci fib]
+11.8 +11.1 95 +12 +12 1017.8 1015.1
03 22.08 Ю 2 50 км 8/3 1500 м
[Cu hum Ac lent]
+12.0 +11.2 95 +11 +11 1018.1 1015.4 +11.2
06 22.08 Ю 3 50 км 1/1 1500 м
[Cu hum]
+16.6 +13.2 80 +16 +20 1017.7 1015.1

 

Местоположение метеостанции Окунев Нос (Коми, Россия): широта 66.25 долгота 52.58 высота над уровнем моря 20 м.

В архиве по умолчанию представлена погода в Окуневом Носу за последнюю неделю. Архивные данные за месяц целиком и за предыдущие месяцы, начиная с января 2011 года, Вы можете получить, выбрав интересующий диапазон дат из раскрывающегося списка и нажав кнопку "Ввод!".


*Определитесь, кто Вы:
робот инопланетянин человек

Внимание! Время в таблицах - всемирное. Для получения местного времени необходимо прибавить поправку, которая равна 3 ч.

Смотрите также архив погоды в соседних городах и на ближайших метеорологических станциях:

Погода в Усть-Цильме (Коми, Россия) (92 км)
Погода в Коткино (Ненецкий АО, Россия) (108 км)
Погода в Мутном Материке (Коми, Россия) (121 км)
Погода в Ижме (Коми, Россия) (152 км)
Погода в Нарьян-Маре (Ненецкий АО, Россия) (155 км)
Погода в Усть-Усе (Коми, Россия) (198 км)
Погода в Усинске (Коми, Россия) (217 км)
Погода в Нижней Пеше (Ненецкий АО, Россия) (220 км)
Погода в Кедва-Воме (Коми, Россия) (230 км)
Погода в Ираеле (Коми, Россия) (233 км)

Пояснения к столбцам:

Ветер - указаны скорость ветра в м/с - средняя за 10 мин, порывы в срок и между сроками (в фигурных скобках) и направление, откуда дует ветер: С - северный, СВ - северо-восточный, В - восточный, ЮВ - юго-восточный, Ю - южный, ЮЗ - юго-западный, З - западный, СЗ - северо-западный.
Видимость - горизонтальная дальность видимости в метрах или километрах. При видимости от 1 до 10 км при отсутствии осадков обычно наблюдается дымка, при ухудшении видимости до 1 км и менее - туман. В сухую погоду видимость может ухудшаться дымом, пылью или мглою.
Явления - указаны атмосферные явления, наблюдавшиеся в срок или в последний час перед сроком; фигурными скобками обозначены явления, наблюдавшиеся между сроками (за 1-3 часа до срока); квадратными скобками обозначены град или гололедные отложения с указанием их диаметра в мм.
Облачность - указаны через наклонную черту общая и нижняя облачность в баллах и высота нижней границы облаков в метрах; квадратными скобками обозначены формы облаков: Ci - перистые, Cs - перисто-слоистые, Cc - перисто-кучевые, Ac - высококучевые, As - высокослоистые, Sc - слоисто-кучевые, Ns - слоисто-дождевые, Cu - кучевые, Cb - кучево-дождевые. Подробнее классификацию облаков см. в Атласе облаков (PDF).
T - Температура воздуха - температура, измеренная на высоте 2 м над землей.
Td - Температура точки росы - температура, при понижении до которой содержащийся в воздухе водяной пар достигнет насыщения.
f - Относительная влажность воздуха - влажноcть воздуха, измеренная на высоте 2 м над землей.
Te - Эффективная температура - температура, которую ощущает одетый по сезону человек в тени. Характеристика душности погоды. При расчете учитывается влияние влажности воздуха и скорости ветра на теплоощущения человека.
Tes - Эффективная температура на солнце - температура, которую ощущает человек, с поправкой на солнечный нагрев. Характеристика знойности погоды. Зависит от высоты солнца над горизонтом, облачности и скорости ветра. Ночью, в пасмурную погоду, а также при ветре 12 м/с и более поправка равна нулю.
P - Атмосферное давление - приведенное к уровню моря атмосферное давление.
Po - Атмосферное давление - измеренное на уровне метеостанции атмосферное давление.
Tmin - Минимальная температура - минимум температуры воздуха на высоте 2 м над землей.
Tmax - Максимальная температура - максимум температуры воздуха на высоте 2 м над землей.
R - Количество осадков - Количество выпавших осадков за период времени, мм. При наведении курсора мыши на число - период времени, за который выпало указанное количество осадков.
R24 - Количество осадков - Количество выпавших осадков за 24 часа, мм.
S - Снежный покров - Высота снежного покрова, см. При наведении курсора мыши на число - состояние снежного покрова и степень покрытия местности в баллах.